Change the Weather History Date:

Tuesday, January 10, 2012

  Actual Average Record
Temperature  
Mean Temperature 40 °F -  
Max Temperature 53 °F 35 °F 53 °F (2012)
Min Temperature 26 °F 18 °F -17 °F (2011)
Degree Days  
Heating Degree Days 24    
Moisture  
Dew Point 27 °F    
Average Humidity 77    
Maximum Humidity 93    
Minimum Humidity 34    
Precipitation  
Precipitation 0.04 in - - ()
Sea Level Pressure  
Sea Level Pressure 29.88 in    
Wind  
Wind Speed 11 mph (NW)    
Max Wind Speed 26 mph    
Max Gust Speed 38 mph    
Visibility 7 miles    
Events Rain , Snow    
Averages and records for this station are not official NWS values.
T = Trace of Precipitation, MM = Missing Value Source: NWS Daily Summary

Daily Weather History Graph

Daily Weather History Graph

Search for Another Location

Airport or City:

Trip Planner

Search our weather history database for the weather conditions in past years. The results will help you decide how hot, cold, wet, or windy it might be!

Date:

Astronomy

Jan. 10, 2012 Rise Set
Actual Time 7:38 AM MST 4:30 PM MST
Civil Twilight 7:04 AM MST 5:04 PM MST
Nautical Twilight 6:26 AM MST 5:42 PM MST
Astronomical Twilight 5:50 AM MST 6:18 PM MST
Moon 6:33 PM MST (1/10) 8:11 AM MST (1/10)
Length of Visible Light 9h 59m
Length of Day
8h 51m
Full, 98% of the Moon is Illuminated
Jan 10
Full
Jan 16
Last Quarter
Jan 23
New
Jan 30
First Quarter
Feb 7
Full

Hourly Weather History & Observations

Time (MST) Temp. Windchill Dew Point Humidity Pressure Visibility Wind Dir Wind Speed Gust Speed Precip Events Conditions
12:51 AM 35.1 °F 29.3 °F 23.0 °F 61% 29.96 in 10.0 mi West 6.9 mph - N/A   Clear
1:51 AM 34.0 °F 26.0 °F 23.0 °F 64% 29.96 in 10.0 mi West 10.4 mph - N/A   Clear
2:51 AM 34.0 °F - 23.0 °F 64% 29.94 in 10.0 mi Calm Calm - N/A   Clear
3:51 AM 34.0 °F - 23.0 °F 64% 29.92 in 10.0 mi Calm Calm - N/A   Clear
4:51 AM 28.9 °F - 21.9 °F 75% 29.93 in 10.0 mi Calm Calm - N/A   Clear
5:51 AM 33.1 °F 26.9 °F 23.0 °F 66% 29.93 in 10.0 mi WSW 6.9 mph - N/A   Clear
6:51 AM 36.0 °F 29.0 °F 24.1 °F 62% 29.90 in 10.0 mi WSW 9.2 mph - N/A   Clear
7:51 AM 36.0 °F 28.5 °F 24.1 °F 62% 29.88 in 10.0 mi WSW 10.4 mph - N/A   Clear
8:51 AM 39.9 °F 34.5 °F 25.0 °F 55% 29.83 in 10.0 mi WSW 8.1 mph - N/A   Clear
9:51 AM 46.0 °F 39.9 °F 25.0 °F 44% 29.81 in 10.0 mi WSW 13.8 mph - N/A   Partly Cloudy
10:51 AM 51.1 °F - 26.1 °F 38% 29.76 in 10.0 mi WSW 8.1 mph - N/A   Partly Cloudy
11:51 AM 53.1 °F - 25.0 °F 34% 29.72 in 10.0 mi West 16.1 mph - N/A   Partly Cloudy
12:51 PM 50.0 °F - 25.0 °F 38% 29.72 in 10.0 mi WNW 12.7 mph - N/A   Overcast
1:51 PM 48.0 °F - 25.0 °F 41% 29.73 in 10.0 mi NW 16.1 mph - N/A   Overcast
2:51 PM 46.0 °F 40.6 °F 26.1 °F 46% 29.75 in 10.0 mi NNW 11.5 mph - N/A   Overcast
3:51 PM 41.0 °F 33.1 °F 30.9 °F 67% 29.79 in 10.0 mi NW 15.0 mph - 0.00 in Rain Light Rain
4:24 PM 35.6 °F 26.6 °F 33.8 °F 93% 29.77 in 8.0 mi NW 13.8 mph - 0.01 in Rain Light Rain
4:34 PM 35.6 °F 28.0 °F 33.8 °F 93% 29.77 in 9.0 mi NW 10.4 mph - 0.01 in Rain Light Rain
4:43 PM 35.6 °F 28.6 °F 33.8 °F 93% 29.77 in 8.0 mi NW 9.2 mph - 0.01 in Rain Light Rain
4:51 PM 35.1 °F 26.4 °F 33.1 °F 92% 29.85 in 9.0 mi NW 12.7 mph - 0.02 in Rain Light Rain
4:57 PM 33.8 °F 25.3 °F 32.0 °F 93% 29.78 in 6.0 mi NW 11.5 mph - 0.00 in Snow Light Snow
5:09 PM 33.8 °F 25.3 °F 32.0 °F 93% 29.79 in 2.0 mi NW 11.5 mph - 0.01 in Snow Light Snow
5:49 PM 33.8 °F 23.5 °F 32.0 °F 93% 29.81 in 1.8 mi NW 16.1 mph - 0.02 in Snow Light Snow
5:51 PM 33.1 °F 22.2 °F 30.9 °F 92% 29.89 in 1.8 mi NW 17.3 mph 21.9 mph 0.02 in Snow Light Snow
5:59 PM 32.0 °F 19.8 °F 30.2 °F 93% 29.82 in 2.0 mi NNW 20.7 mph 25.3 mph 0.00 in Snow Light Snow
6:40 PM 30.2 °F 17.4 °F 28.4 °F 93% 29.87 in 3.0 mi NNW 20.7 mph 26.5 mph 0.00 in Snow Light Snow
6:51 PM 30.0 °F 16.6 °F 28.0 °F 92% 29.95 in 2.5 mi NNW 23.0 mph 27.6 mph 0.00 in Snow Light Snow
6:59 PM 30.2 °F 16.8 °F 28.4 °F 93% 29.88 in 3.0 mi NNW 23.0 mph 27.6 mph 0.00 in Snow Light Snow
7:22 PM 30.2 °F 18.1 °F 26.6 °F 86% 29.89 in 3.0 mi NNW 18.4 mph 26.5 mph 0.00 in Snow Light Snow
7:51 PM 28.9 °F 15.1 °F 27.0 °F 92% 29.99 in 4.0 mi NW 23.0 mph 28.8 mph 0.00 in Snow Light Snow
8:06 PM 28.4 °F 16.2 °F 26.6 °F 93% 29.92 in 2.5 mi NW 17.3 mph 25.3 mph 0.00 in Snow Light Snow
8:13 PM 28.4 °F 15.4 °F 26.6 °F 93% 29.92 in 3.0 mi NNW 19.6 mph 27.6 mph 0.00 in Snow Light Snow
8:51 PM 28.0 °F 13.9 °F 26.1 °F 92% 30.01 in 10.0 mi NNW 23.0 mph 28.8 mph 0.00 in Snow Light Snow
9:51 PM 28.0 °F 13.9 °F 25.0 °F 88% 30.02 in 10.0 mi NW 23.0 mph 31.1 mph 0.00 in   Overcast
10:19 PM 28.4 °F 15.8 °F 24.8 °F 86% 29.97 in 7.0 mi NNW 18.4 mph - 0.00 in Snow Light Snow
10:34 PM 28.4 °F 16.6 °F 24.8 °F 86% 29.98 in 3.0 mi NW 16.1 mph 24.2 mph 0.00 in Snow Light Snow
11:09 PM 28.4 °F 16.2 °F 24.8 °F 86% 30.00 in 2.0 mi NW 17.3 mph - 0.00 in Snow Light Snow
11:34 PM 28.4 °F 16.2 °F 24.8 °F 86% 30.00 in 1.8 mi NW 17.3 mph 27.6 mph 0.00 in Snow Light Snow
11:36 PM 28.4 °F 16.2 °F 24.8 °F 86% 30.00 in 1.8 mi NW 17.3 mph 27.6 mph 0.00 in Snow Light Snow
11:51 PM 28.0 °F 13.9 °F 25.0 °F 88% 30.05 in 2.0 mi NW 23.0 mph 34.5 mph 0.00 in Snow Light Snow
11:56 PM 26.6 °F 11.1 °F 24.8 °F 93% 30.01 in 3.0 mi NW 26.5 mph 38.0 mph 0.00 in Snow Light Snow